Flag for Uruguay Weather past 2 weeks in Florida, Uruguay

Now
63 °F

Clear.


Feels Like: 63 °F
Forecast: 57 / 85 °F
Wind: 5 mph from North

Location: Carrasco

Current Time: Oct 23, 2014 at 5:08:32 AM

Latest Report: Oct 23, 2014 at 4:00 AM


Visibility: 10 mi

Pressure: 30.01 "Hg

Humidity: 77%

Dew point: 55 °F

Location of FloridaLocation

Historic Weather in Florida — Graph

°F

Florida temperature yesterday

Maximum temperature yesterday: 86 °F (at 4:00 PM)
Minimum temperature yesterday: 57 °F (at 7:00 AM)
Average temperature yesterday: 72 °F

Past Weeks' High & Low Weather Summary

 TemperatureHumidityPressure
High86 °F (Oct 22, 4:00 PM)100% (Oct 8, 7:00 AM)30.18 "Hg (Oct 8, 7:00 AM)
Low50 °F (Oct 13, 4:00 AM)21% (Oct 21, 4:00 PM)29.53 "Hg (Oct 9, 4:00 PM)
Average65 °F73%29.95 "Hg
* Reported Oct 8 4:00 AM — Oct 23 4:00 AM, Florida, Weather by CustomWeather, © 2014

Note: Actual official high and low records may vary slightly from our data, if they occured in-between our weather recording intervals... More about our weather records

Advertising

Florida weather history for previous 24 hours

 ConditionsComfort  
Time TempWeatherWind HumidityBarometerVisibility
4:00 AM
Oct 23
63 °FClear.5 mph77%30.01 "Hg10 mi
3:00 AM64 °FClear.7 mph73%30.01 "Hg10 mi
2:00 AM66 °FClear.7 mph73%30.04 "Hg10 mi
1:00 AM66 °FClear.8 mph78%30.04 "Hg10 mi
12:00 AM68 °FClear.7 mph69%30.04 "Hg10 mi
11:00 PM
Oct 22
70 °FClear.5 mph64%30.04 "Hg10 mi
10:00 PM70 °FClear.3 mph69%30.01 "Hg10 mi
9:00 PM73 °FClear.5 mph61%30.01 "Hg10 mi
8:00 PM79 °FSunny.7 mph48%30.01 "Hg10 mi
7:00 PM82 °FSunny.7 mph37%29.98 "Hg10 mi
6:00 PM86 °FSunny.15 mph31%30.01 "Hg10 mi
5:00 PM86 °FSunny.15 mph31%30.01 "Hg10 mi
4:00 PM86 °FSunny.17 mph33%30.04 "Hg10 mi
3:00 PM84 °FSunny.15 mph35%30.04 "Hg10 mi
2:00 PM84 °FSunny.15 mph35%30.07 "Hg10 mi
1:00 PM82 °FSunny.16 mph42%30.07 "Hg10 mi
12:00 PM79 °FSunny.13 mph48%30.09 "Hg10 mi
10:00 AM72 °FSunny.10 mph61%30.07 "Hg10 mi
9:00 AM68 °FSunny.9 mph64%30.09 "Hg10 mi
8:00 AM57 °FSunny.10 mph88%30.07 "Hg10 mi
7:00 AM57 °FSunny.8 mph88%30.07 "Hg10 mi
6:00 AM59 °FClear.7 mph77%30.07 "Hg10 mi
5:00 AM59 °FClear.13 mph77%30.07 "Hg10 mi
Weather by CustomWeather, © 2014

See weather overviewHow to use our weather pages